Location: Albany
(35.0170°S, 117.8920°E)
Time: 21:23:00
(UTC+08:00)

Transit 4A - All Passes

Search period start: 25 January 2021 00:00
Search period end: 04 February 2021 00:00
Orbit: 864 x 980 km, 66.8° (Epoch: 25 January)

Date Brightness Start Highest point End Pass type
(mag) Time Alt. Az. Time Alt. Az. Time Alt. Az.
25 Jan - 05:57:35 10° N 06:02:52 38° ENE 06:08:12 10° SE daylight
25 Jan - 07:44:14 10° WNW 07:49:13 29° SW 07:54:17 10° S daylight
25 Jan - 15:03:21 10° S 15:08:22 26° SE 15:13:26 10° ENE daylight
25 Jan - 16:49:02 10° SW 16:54:56 50° WNW 17:00:57 10° N daylight
26 Jan - 06:06:22 10° N 06:12:03 60° ENE 06:17:48 10° SE daylight
26 Jan - 07:54:38 10° W 07:58:48 20° SW 08:03:01 10° S daylight
26 Jan - 15:12:15 10° S 15:17:53 37° ESE 15:23:37 10° ENE daylight
26 Jan - 16:58:44 10° SW 17:04:06 32° WNW 17:09:35 10° N daylight
27 Jan - 04:35:34 10° ENE 04:35:52 10° E 04:36:10 10° E visible
27 Jan - 06:15:29 10° NNW 06:21:18 88° WSW 06:27:11 10° SSE daylight
27 Jan - 08:05:41 10° WSW 08:08:29 14° SW 08:11:19 10° SSW daylight
27 Jan - 15:21:17 10° SSW 15:27:19 55° ESE 15:33:27 10° NE daylight
27 Jan - 17:08:47 10° WSW 17:13:13 21° WNW 17:17:42 10° NNW daylight
28 Jan - 04:41:10 10° NE 04:44:52 18° ENE 04:48:35 10° ESE visible
28 Jan - 06:24:56 10° NW 06:30:38 57° WSW 06:36:25 10° SSE daylight
28 Jan - 13:46:23 10° SSE 13:49:27 14° SE 13:52:32 10° ESE daylight
28 Jan - 15:30:30 10° SSW 15:36:40 83° ESE 15:42:58 10° NNE daylight
28 Jan - 17:19:44 10° WSW 17:22:15 13° WNW 17:24:48 10° NW daylight
29 Jan - 04:49:05 10° NNE 04:53:57 28° ENE 04:58:49 10° SE visible
29 Jan - 06:34:42 10° NW 06:40:03 37° WSW 06:45:29 10° S daylight
29 Jan - 13:54:42 10° S 13:59:08 20° SE 14:03:37 10° E daylight
29 Jan - 15:39:51 10° SSW 15:45:57 66° WNW 15:52:10 10° NNE daylight
30 Jan - 04:57:36 10° N 05:03:04 44° ENE 05:08:35 10° SE visible
30 Jan - 06:44:49 10° WNW 06:49:34 25° SW 06:54:22 10° S daylight
30 Jan - 14:03:26 10° S 14:08:43 29° SE 14:14:05 10° ENE daylight
30 Jan - 15:49:23 10° SW 15:55:10 43° WNW 16:01:02 10° N daylight
31 Jan - 05:06:31 10° NNW 05:12:16 71° ENE 05:18:06 10° SSE daylight
31 Jan - 06:55:24 10° W 06:59:10 17° SW 07:02:59 10° S daylight
31 Jan - 14:12:23 10° SSW 14:18:12 43° ESE 14:24:08 10° NE daylight
31 Jan - 15:59:11 10° SW 16:04:19 28° WNW 16:09:31 10° NNW daylight
01 Feb - 03:33:41 10° NE 03:36:00 12° ENE 03:38:20 10° ESE visible
01 Feb - 05:15:45 10° NNW 05:21:33 76° WSW 05:27:26 10° SSE daylight
01 Feb - 07:06:52 10° WSW 07:08:54 12° SW 07:10:56 10° SSW daylight
01 Feb - 12:38:40 10° SSE 12:40:06 11° SE 12:41:33 10° ESE daylight
01 Feb - 14:21:30 10° SSW 14:27:36 64° ESE 14:33:51 10° NE daylight
01 Feb - 16:09:27 10° WSW 16:13:24 18° WNW 16:17:22 10° NW daylight
02 Feb - 03:40:50 10° NNE 03:45:02 21° ENE 03:49:14 10° ESE visible
02 Feb - 05:25:19 10° NW 05:30:54 49° WSW 05:36:36 10° SSE daylight
02 Feb - 12:46:12 10° S 12:49:52 16° SE 12:53:34 10° E daylight
02 Feb - 14:30:45 10° SSW 14:36:56 86° WNW 14:43:15 10° NNE daylight
02 Feb - 16:21:33 10° W 16:22:25 10° W 16:23:17 10° WNW daylight
03 Feb - 03:49:01 10° N 03:54:07 33° ENE 03:59:17 10° SE visible
03 Feb - 05:35:12 10° WNW 05:40:22 32° SW 05:45:37 10° S daylight
03 Feb - 12:54:43 10° S 12:59:30 23° SE 13:04:22 10° ENE daylight
03 Feb - 14:40:10 10° SW 14:46:11 57° WNW 14:52:20 10° N daylight
